GFSGL_850_rhum_030.txt.gz
RH
89 93 92 95 97 94 91 97 94 91 77 72 57 46 47 50 51 52 53 52 47 36 27 26 29 35 35 33 33 31 33 48 63 59 62 75 80 81 74 82 67 70 80
89 92 95 98 97 94 89 85 79 86 64 57 47 46 49 51 52 52 52 49 39 28 26 31 35 36 34 33 32 38 55 63 71 81 86 85 85 84 74 70 72 80 70
89 96 97 94 94 88 79 67 68 61 56 48 46 48 50 52 52 52 50 38 28 27 33 35 34 34 31 34 45 56 60 64 74 90 86 86 76 73 78 85 81 76 76
93 90 86 91 84 80 83 72 66 69 53 46 48 50 51 52 53 55 42 29 27 33 33 30 31 37 46 59 65 69 81 85 93 93 90 93 98 79 97 90 84 82 80
80 81 87 86 84 83 70 61 55 57 47 49 53 53 51 54 62 45 31 28 34 32 25 20 29 48 59 72 82 83 90 95 92 97 100 100 98 98 89 92 92 82 73
77 82 78 84 81 76 64 66 82 59 54 51 51 56 62 61 61 30 29 34 31 23 16 20 35 44 52 75 83 87 88 92 94 88 98 100 89 95 94 95 86 80 100
77 72 74 78 72 65 70 72 63 53 55 62 63 57 76 70 28 30 35 30 20 16 18 31 50 59 66 72 81 88 90 94 94 93 94 90 94 94 94 91 91 98 99
68 74 74 73 79 80 75 65 69 75 64 54 64 87 50 28 33 36 29 18 16 17 25 48 65 70 74 83 85 91 91 82 82 93 96 94 94 94 97 98 98 99 87
64 76 90 96 89 86 78 60 51 50 55 87 76 35 29 38 37 30 18 17 18 19 32 53 64 74 81 85 90 85 84 88 88 81 93 99 100 100 100 99 94 100 95
100 100 94 91 83 60 47 49 53 80 81 44 29 35 39 37 27 20 20 22 22 20 24 45 62 88 90 91 88 94 98 90 84 93 88 77 72 75 82 91 99 99 97
92 92 72 52 47 48 52 63 68 52 36 29 38 40 35 27 26 31 32 30 36 65 84 83 85 92 92 92 92 95 94 94 96 91 84 76 78 79 83 88 99 100 99
63 46 46 48 50 55 59 55 42 29 34 39 41 34 30 37 42 39 57 79 90 93 90 91 89 95 95 95 95 94 96 99 90 85 88 84 87 86 86 88 89 89 90
46 48 49 51 54 55 48 33 29 37 41 41 31 28 30 34 33 44 53 52 43 78 87 92 97 97 94 89 79 94 98 86 90 94 93 88 88 87 87 86 83 85 88
50 51 54 56 52 40 28 33 38 43 40 25 21 21 22 21 21 25 25 29 47 67 83 96 88 73 66 83 70 74 82 88 98 98 94 87 86 89 88 90 94 93 98
55 56 54 47 33 28 34 40 45 35 22 20 20 22 20 15 15 28 60 74 87 95 96 84 63 62 68 64 71 81 84 88 90 93 93 93 91 93 91 93 94 99 100
60 55 43 28 30 34 43 44 30 21 20 23 24 17 12 18 25 37 46 90 99 100 96 83 73 76 76 72 82 88 89 89 92 94 94 96 96 97 96 94 98 98 100
55 34 26 30 36 46 40 23 20 23 26 25 27 38 31 44 52 60 98 97 100 92 75 73 77 77 73 78 91 93 90 89 95 97 96 96 97 96 98 94 95 98 96
26 27 31 42 47 32 20 20 22 20 15 13 19 30 42 62 60 93 99 94 64 64 76 79 77 73 73 90 94 95 92 92 96 95 95 97 97 98 96 96 97 100 97
28 36 47 42 25 20 21 22 16 14 15 24 31 37 46 52 55 58 72 70 75 75 72 70 69 69 89 94 96 93 94 96 97 97 96 96 96 98 95 96 98 98 100
42 50 34 22 21 22 20 13 13 20 28 36 43 52 59 68 53 51 61 73 76 75 71 65 65 88 94 96 95 94 95 94 96 96 96 96 96 97 97 96 97 100 97
48 29 21 22 23 17 13 16 26 33 38 43 49 54 76 81 55 58 68 73 72 68 66 66 87 94 96 96 95 94 94 95 97 98 98 98 99 99 99 97 96 96 96
27 21 23 22 16 13 19 26 33 38 45 50 51 53 53 54 57 61 69 70 69 69 71 90 93 96 98 96 95 94 94 97 97 99 99 98 98 97 98 97 97 97 97
21 24 22 16 14 20 28 34 39 44 49 53 58 57 56 60 62 65 72 73 71 73 94 96 96 94 96 96 97 98 97 98 100 100 97 96 96 95 98 100 97 94 96
24 22 15 14 21 27 33 37 43 50 56 59 62 62 64 64 63 72 77 77 86 97 97 96 97 97 97 96 96 96 98 100 100 100 100 99 96 99 100 100 97 95 97
22 15 15 21 26 31 37 45 51 56 61 63 67 68 65 63 64 76 81 91 96 94 94 97 97 96 96 97 97 97 98 98 100 100 100 99 93 89 90 97 97 92 92
16 16 20 24 32 40 46 50 55 60 64 65 69 69 67 64 68 78 86 94 95 94 97 97 97 98 97 96 95 94 94 95 100 99 98 100 98 96 96 100 100 99 96

GFSGL_850_rhum_033.txt.gz
RH
47 62 67 77 76 80 94 90 82 97 94 95 88 73 72 60 49 50 51 52 51 50 44 34 26 29 34 35 34 32 33 37 47 45 43 45 54 53 50 55 58 61 59
54 64 80 79 77 86 91 89 92 98 94 88 88 73 50 54 51 51 52 52 52 48 36 27 30 36 37 36 35 33 34 41 52 57 62 64 69 65 67 69 72 67 64
63 75 87 77 82 90 90 89 93 94 89 89 71 61 72 49 50 51 51 50 46 36 29 32 35 36 34 33 36 39 44 55 64 74 83 83 83 73 76 82 90 69 66
77 87 93 86 90 92 92 87 86 89 78 70 76 51 48 50 52 52 55 45 53 36 32 32 30 30 31 40 47 56 68 78 85 92 93 91 84 82 91 92 82 73 73
97 97 89 93 94 87 73 68 68 66 72 66 57 70 52 58 58 70 82 54 31 33 31 24 20 24 39 47 61 75 84 87 90 95 94 89 99 98 88 82 92 86 76
95 94 94 88 75 72 65 60 70 79 60 59 60 68 63 65 87 91 47 32 34 29 21 17 20 26 36 42 60 82 88 89 92 92 96 99 94 88 87 94 92 86 100
93 87 80 72 70 76 67 69 68 78 91 90 85 74 94 95 57 31 36 35 28 19 17 18 19 28 49 66 67 82 87 91 94 95 92 87 95 92 94 92 94 99 99
81 72 70 70 72 79 87 87 92 89 82 89 91 74 70 36 32 36 35 27 18 18 18 17 21 38 55 65 82 90 97 94 82 86 98 99 99 95 98 98 98 98 94
70 68 71 85 89 88 95 97 98 97 87 55 71 54 33 36 39 35 26 19 20 19 16 16 31 42 54 91 91 91 89 90 94 88 79 97 100 100 98 100 94 97 91
82 90 92 98 100 100 97 95 67 48 62 62 34 33 40 39 32 24 22 20 19 18 25 28 33 63 94 93 94 98 98 92 86 88 88 82 75 74 76 86 93 100 98
100 100 100 100 98 73 49 48 54 51 36 33 39 40 37 30 24 24 26 33 44 51 53 42 49 64 95 94 95 97 96 92 96 90 84 74 74 74 78 82 87 99 100
100 98 85 55 48 48 59 80 44 33 34 38 40 36 27 25 30 33 32 46 77 80 46 42 61 96 97 96 93 94 95 98 87 79 81 78 80 79 81 83 85 88 89
63 48 47 49 67 63 48 37 32 36 39 40 32 22 24 25 24 20 18 27 32 43 46 85 100 100 89 54 55 88 72 76 82 84 85 84 88 88 85 84 85 84 84
47 50 50 53 51 43 32 33 36 40 37 23 20 20 21 20 16 15 21 30 43 65 84 100 100 79 54 55 55 64 78 85 90 93 93 90 88 89 87 87 88 88 91
51 53 54 48 34 29 34 41 42 29 21 21 22 20 14 13 20 43 77 83 94 95 98 86 59 49 50 53 64 80 83 86 90 94 96 95 93 93 88 86 89 94 98
58 55 43 29 33 41 46 37 23 21 22 21 15 13 35 46 74 91 97 97 99 100 88 63 59 61 61 63 81 84 85 88 91 94 94 95 96 94 92 89 96 98 98
50 30 31 36 45 44 28 21 21 22 19 18 19 25 40 79 94 98 100 100 84 81 62 60 64 64 62 80 89 90 89 89 93 94 95 96 96 94 97 93 93 97 95
28 33 40 46 36 23 20 21 20 14 13 18 28 34 41 48 70 75 60 52 48 52 61 65 63 61 78 90 90 91 89 90 93 94 96 98 96 97 94 96 96 98 95
34 43 43 28 21 21 22 16 14 16 23 28 32 37 43 47 56 54 53 58 62 63 61 59 60 78 91 93 92 93 93 92 98 97 94 96 96 97 95 96 96 96 99
44 38 26 21 22 21 14 13 18 24 29 34 42 47 50 54 47 47 51 61 64 62 62 60 80 90 93 94 95 95 91 92 94 96 97 97 98 98 96 96 96 97 95
35 24 21 23 20 14 13 20 24 29 34 42 48 53 65 65 55 54 56 63 65 65 63 82 88 91 94 95 96 95 93 94 99 99 100 100 97 98 98 96 96 95 96
24 22 23 20 13 14 20 25 30 37 44 47 49 54 55 56 54 54 61 66 68 74 92 92 92 95 98 98 98 98 94 97 100 100 100 96 93 93 95 97 99 100 99
22 24 20 13 15 20 24 30 38 43 47 52 54 55 56 54 54 56 65 70 81 94 95 96 96 94 97 98 99 100 98 99 99 100 99 94 95 97 97 97 99 98 100
24 21 14 15 19 22 29 38 44 50 52 54 56 60 60 59 57 58 67 78 93 96 98 96 97 98 97 96 95 96 98 99 97 96 99 98 97 98 96 97 95 100 100
22 14 15 18 22 29 37 45 50 53 56 58 60 64 63 61 56 60 70 88 93 94 94 96 98 97 97 95 94 95 96 94 98 100 99 98 99 99 99 97 96 97 99
14 15 18 22 30 38 45 50 52 56 58 61 64 67 64 61 56 62 72 88 90 91 95 97 98 99 98 95 90 91 92 98 98 100 99 100 97 99 99 98 96 97 95

GFSGL_850_rhum_036.txt.gz
RH
37 35 32 32 51 63 63 60 62 73 84 97 100 93 80 85 78 66 74 73 59 51 50 49 44 34 29 33 36 34 35 36 41 38 37 36 40 37 32 34 37 42 42
41 35 37 49 72 84 68 69 82 99 100 100 97 82 78 78 72 84 89 53 51 49 47 40 32 31 33 33 34 33 32 35 42 45 55 55 55 48 52 50 46 42 46
50 51 57 69 77 81 77 92 98 93 99 99 85 77 82 76 95 61 57 72 50 45 37 38 50 46 39 30 28 29 35 40 50 69 76 76 80 67 65 58 59 46 50
80 76 66 82 83 83 91 78 88 94 93 89 76 78 85 87 84 78 53 46 49 48 74 89 86 38 27 23 30 37 47 66 75 79 80 90 88 73 72 77 72 57 67
94 95 94 96 95 92 86 95 94 92 86 85 85 92 88 79 62 50 49 72 94 98 90 53 28 22 21 30 43 54 74 80 79 87 95 94 87 86 82 75 79 77 79
100 95 94 94 94 97 92 92 92 80 82 83 85 88 89 90 94 97 100 99 89 74 38 23 19 21 25 32 44 81 84 88 92 92 94 95 90 84 80 81 94 93 100
99 98 100 86 88 90 91 85 77 78 78 88 90 94 99 99 99 100 67 39 36 30 22 18 19 20 25 36 47 53 65 87 92 94 95 92 86 80 89 93 96 100 99
99 95 90 88 88 78 71 81 88 94 90 94 100 98 100 99 57 51 38 36 28 21 21 21 20 23 27 34 57 88 89 88 91 93 87 85 90 92 97 99 98 94 87
96 87 76 73 80 83 89 96 100 100 100 99 100 99 99 62 40 38 35 26 24 24 22 25 32 30 25 61 91 95 99 93 87 80 84 97 100 100 99 98 84 94 88
81 79 88 100 100 99 100 99 100 100 99 95 77 38 39 42 38 33 28 24 25 29 26 28 24 22 48 94 96 100 98 88 83 90 89 82 79 73 77 84 91 100 97
98 100 100 100 100 100 100 98 72 68 53 40 39 41 42 37 33 34 38 49 56 50 34 21 21 36 94 99 97 96 91 92 99 92 80 72 74 74 77 80 85 94 98
100 100 99 100 88 59 50 52 56 48 37 38 41 40 35 30 29 32 30 24 29 38 26 29 50 93 100 99 80 56 97 98 75 76 79 78 80 78 78 80 81 85 89
100 90 58 48 49 62 68 47 36 38 40 41 37 28 25 23 23 21 17 19 24 36 52 83 99 92 84 63 49 52 59 76 81 82 84 85 88 85 81 81 81 80 80
48 52 58 70 58 42 36 35 39 42 39 26 20 20 22 21 16 19 25 31 44 64 84 95 96 83 60 52 52 61 79 83 87 91 91 88 86 86 86 87 86 86 88
60 55 51 47 39 34 36 41 42 32 22 21 21 19 17 20 27 51 66 78 94 98 99 91 64 48 46 47 60 78 80 82 86 92 92 88 90 92 88 87 88 92 97
54 52 45 34 33 37 42 36 24 20 21 21 16 15 28 35 70 67 79 99 96 100 78 60 54 53 53 60 80 79 82 85 89 91 92 95 96 96 95 91 96 95 93
54 40 30 33 40 41 25 21 23 24 19 16 18 25 33 40 45 72 59 64 54 58 56 55 54 54 59 82 86 87 86 88 91 94 93 94 96 98 99 93 93 95 94
30 30 37 43 31 22 22 22 18 14 14 20 26 30 37 44 66 56 50 48 49 53 54 54 53 62 85 88 89 90 90 91 92 92 95 98 96 97 96 96 96 99 98
33 43 39 25 21 22 21 15 12 16 22 27 32 40 44 50 57 52 51 50 53 52 52 54 68 87 89 92 92 93 96 94 97 99 96 96 96 97 96 99 97 95 98
45 33 23 21 22 20 14 12 19 24 28 34 40 42 45 46 47 48 49 54 56 56 57 71 89 91 92 92 94 96 94 93 95 95 95 97 99 98 98 98 98 98 95
32 23 22 23 19 13 14 19 24 28 35 40 45 50 58 54 53 51 50 56 59 62 78 90 91 92 92 93 97 96 94 94 96 96 97 100 97 94 98 97 96 96 98
23 22 23 20 13 14 19 23 28 33 38 43 48 51 55 57 55 52 55 60 67 88 94 93 92 92 94 97 100 98 93 94 95 96 98 97 91 94 98 97 97 96 97
22 23 20 13 14 19 23 28 33 39 44 49 52 53 56 56 54 53 56 62 78 91 94 95 94 91 94 97 100 100 98 96 94 97 98 94 94 95 97 97 97 95 96
24 22 13 14 18 20 26 34 40 44 49 53 55 56 58 58 56 52 57 63 83 90 93 94 96 98 97 98 98 94 94 98 98 93 98 99 98 97 99 97 95 95 98
23 14 13 16 20 26 34 40 45 50 54 55 56 56 59 59 55 52 58 62 81 85 87 91 96 96 97 100 98 91 92 96 99 98 98 98 97 99 96 96 95 96 96
16 13 16 19 26 34 39 45 51 54 55 56 57 58 60 58 53 52 54 60 80 82 85 89 92 95 96 96 95 89 94 100 94 95 96 98 97 94 94 95 94 96 96

GFSGL_850_rhum_039.txt.gz
RH
24 20 21 31 39 34 32 34 38 55 64 66 71 80 98 99 97 86 64 63 73 74 77 87 62 48 43 35 32 34 34 36 40 36 33 31 30 32 28 27 29 32 29
28 26 28 30 41 43 40 58 72 78 91 99 96 100 100 98 91 61 68 80 76 88 87 84 54 46 37 38 44 45 42 34 39 39 39 40 46 46 45 48 43 39 35
35 36 58 56 47 57 71 97 100 100 100 100 100 100 99 84 64 74 82 84 97 88 74 48 45 47 68 81 83 40 30 32 39 47 53 61 65 67 67 60 56 44 38
60 74 91 95 85 87 100 99 100 100 100 100 100 96 83 76 83 81 88 91 86 87 80 63 92 99 99 72 32 28 33 40 48 62 69 74 86 80 78 72 69 62 52
86 98 99 100 100 100 100 100 100 100 100 100 99 84 78 78 86 92 90 89 91 96 99 100 99 77 27 23 30 37 50 66 78 77 85 92 90 89 86 82 80 64 77
95 98 100 100 100 100 100 100 99 96 96 89 80 76 82 91 95 96 99 100 100 100 99 64 27 23 22 24 28 37 59 84 88 93 94 96 97 94 91 82 84 90 99
99 97 95 93 94 93 94 95 97 94 88 87 92 94 94 96 100 100 99 99 97 63 30 24 20 21 22 25 25 28 39 56 85 97 98 94 92 86 91 93 95 99 100
99 97 97 98 99 98 98 97 92 94 94 94 96 100 100 100 100 100 99 74 37 29 25 24 23 25 26 23 32 68 76 88 92 92 88 84 91 95 97 99 99 97 89
100 100 100 98 100 96 96 99 99 99 100 100 100 100 100 100 87 43 40 34 31 33 27 28 33 34 27 22 60 93 99 89 83 78 74 84 86 99 100 90 81 88 88
98 98 96 92 97 100 100 100 99 100 100 99 99 97 63 43 41 38 33 34 30 27 29 32 36 26 26 83 99 100 100 85 78 87 73 63 65 69 76 83 88 98 99
95 100 100 100 100 100 100 100 100 100 96 75 46 42 43 41 37 32 31 34 42 38 30 21 22 37 86 100 99 96 76 93 98 77 64 70 73 74 78 81 85 92 97
99 100 100 100 100 100 98 88 71 50 40 38 41 41 38 33 32 35 37 34 28 23 26 34 51 93 100 95 66 45 74 89 55 73 79 77 79 78 79 81 84 85 88
100 100 97 75 58 63 63 50 39 37 40 42 40 33 28 26 25 24 19 18 27 39 58 86 90 83 68 45 39 39 44 62 80 81 80 80 86 85 84 82 78 80 79
51 52 61 67 57 44 37 37 40 42 39 28 22 22 23 20 18 23 29 35 50 72 74 83 77 64 49 45 43 49 75 82 85 87 87 87 88 87 84 88 87 86 85
66 63 56 47 39 35 37 40 40 31 23 22 22 20 17 21 26 41 46 66 84 76 86 50 42 42 42 43 54 78 81 83 84 86 89 91 89 89 87 89 91 92 96
55 52 44 33 33 38 41 34 24 21 21 20 14 12 18 26 36 39 56 58 44 41 42 46 46 47 48 59 80 80 82 85 89 90 93 93 92 92 91 90 98 98 94
54 40 29 33 40 40 27 21 21 22 18 14 16 22 26 30 38 37 40 38 41 43 49 50 50 50 64 85 87 87 87 90 91 92 92 92 95 96 98 94 95 96 93
32 29 33 40 35 23 21 22 19 14 14 18 23 26 33 40 42 44 41 41 42 49 52 53 54 72 87 89 90 92 90 91 92 92 92 95 99 100 95 96 97 97 94
28 35 40 29 22 21 22 17 13 15 20 23 27 35 38 44 47 49 48 46 47 52 54 58 80 88 90 92 93 94 94 93 93 96 96 96 100 100 96 96 97 95 98
38 39 26 21 22 21 16 13 18 22 25 28 33 38 44 45 50 50 48 48 56 59 62 83 87 90 94 95 95 95 93 91 90 92 94 98 100 96 96 97 96 97 96
40 26 21 23 22 16 14 19 21 24 29 34 38 44 51 57 51 50 49 52 59 64 82 88 88 92 95 95 96 96 95 92 92 92 94 95 100 98 98 97 94 92 96
28 22 23 22 17 13 18 20 23 29 34 39 46 50 52 54 55 53 50 53 60 76 92 90 90 94 96 98 100 99 96 92 90 92 96 95 98 99 97 95 96 98 98
23 23 23 19 13 16 19 23 30 35 40 45 49 51 54 57 56 53 50 50 56 78 90 93 93 92 94 96 99 100 98 92 93 97 99 94 95 98 94 97 96 95 97
23 24 22 13 15 18 23 31 36 41 45 49 52 54 54 55 55 51 47 48 53 76 86 88 90 91 92 95 96 96 97 92 98 96 95 96 100 92 97 97 97 97 98
24 24 14 15 17 22 30 36 40 45 48 50 52 52 54 54 53 50 47 48 52 71 80 82 86 89 90 92 95 96 95 93 99 99 97 97 93 98 98 98 98 97 99
24 18 14 15 20 27 33 40 46 47 48 52 53 54 53 53 51 47 44 46 51 71 77 81 86 91 93 94 94 96 94 92 96 92 97 97 99 97 98 98 96 98 97

GFSGL_850_rhum_042.txt.gz
RH
35 31 28 26 24 24 33 40 42 40 44 58 71 77 82 94 100 100 100 99 86 70 69 70 69 69 78 83 65 73 56 44 44 51 47 29 27 27 30 30 25 27 27
50 42 35 32 27 35 44 49 44 55 64 76 92 99 100 100 100 100 99 85 66 67 70 82 89 91 87 91 86 84 94 97 98 46 31 31 34 34 35 30 37 42 46
56 55 51 44 46 66 67 77 70 78 96 99 99 100 100 100 100 97 81 72 67 78 91 96 97 93 90 98 100 99 100 87 43 39 45 47 49 40 48 56 59 55 42
66 59 70 100 98 99 100 99 100 99 100 100 100 100 100 100 91 85 75 70 80 93 98 95 93 99 100 99 100 94 41 37 41 50 55 62 61 64 71 78 72 65 60
85 91 88 93 99 100 100 99 100 100 100 100 100 100 99 97 88 68 79 95 97 97 96 100 99 99 99 93 40 28 42 60 67 69 71 71 74 75 84 87 90 74 80
98 98 99 99 100 100 100 100 100 100 100 99 94 91 87 82 90 95 95 94 98 100 99 99 98 77 30 25 29 33 37 47 52 70 74 88 88 88 94 90 90 91 93
97 99 99 99 99 100 100 100 99 98 96 92 88 91 94 96 99 100 100 100 99 100 98 86 32 26 24 24 25 23 22 30 60 92 86 89 94 95 94 95 91 94 96
99 100 100 98 96 97 96 96 95 95 91 92 97 100 100 100 100 100 100 100 95 63 33 28 26 25 26 24 18 25 47 44 66 79 84 86 89 96 99 100 100 91 85
99 100 100 100 100 100 99 100 100 100 100 99 100 100 100 99 100 100 78 38 35 31 30 31 30 27 21 17 29 71 97 95 85 74 58 60 65 66 76 80 79 91 88
99 99 100 100 100 100 100 100 100 100 100 99 99 99 97 70 36 37 40 36 33 36 32 30 26 19 24 78 100 100 93 71 57 46 43 48 62 71 76 83 88 94 97
99 99 100 100 100 100 99 99 99 100 99 86 44 40 41 42 47 44 34 38 35 27 20 19 28 44 85 98 97 91 63 89 90 60 55 69 69 72 74 76 82 92 98
99 99 99 99 99 100 100 86 57 41 38 38 40 41 39 36 37 35 32 28 22 22 31 36 49 89 95 82 62 46 87 70 49 68 73 72 74 76 78 81 82 84 88
99 100 96 80 66 57 47 40 39 40 41 40 38 31 26 25 24 22 22 30 37 44 48 63 74 70 48 40 39 39 42 59 77 77 75 76 83 85 81 80 78 84 83
63 65 65 59 47 40 37 39 42 41 34 25 23 23 22 19 20 23 32 37 48 57 47 47 47 42 40 40 40 48 72 78 81 83 84 83 85 83 82 89 87 87 84
65 58 49 42 36 36 39 40 34 25 22 22 20 16 16 21 34 64 71 56 48 44 45 38 38 36 36 37 56 75 78 80 83 87 86 86 87 90 87 89 90 89 94
54 48 39 35 38 42 37 25 23 22 21 15 12 16 22 26 32 35 36 38 37 35 36 37 37 38 43 66 76 76 80 86 89 89 88 91 93 93 89 85 93 92 90
50 34 32 37 42 33 23 22 23 22 15 13 17 21 24 27 31 36 39 37 38 37 38 41 44 50 74 81 82 83 84 89 92 91 90 94 97 94 94 86 87 90 87
33 30 37 41 30 22 21 21 18 12 14 18 22 24 29 33 36 41 41 39 39 41 44 47 54 80 83 84 86 87 90 92 92 91 90 93 98 100 100 93 95 96 95
30 35 39 30 22 21 21 17 12 14 16 19 24 30 35 39 42 44 43 42 39 44 48 56 84 87 88 89 91 92 94 94 94 93 93 94 98 100 97 97 92 94 99
31 39 31 22 21 22 18 11 14 17 20 24 30 35 41 40 43 45 46 45 45 50 56 77 87 89 92 93 94 94 91 91 92 91 90 93 98 100 100 94 89 94 89
39 35 24 21 22 20 12 14 17 20 26 31 36 42 48 49 48 49 49 47 46 53 62 83 86 90 94 95 96 94 93 93 93 89 90 93 96 100 100 93 91 95 95
38 27 22 22 22 13 14 17 20 26 32 37 41 44 48 50 51 53 51 48 48 56 67 82 85 90 93 95 97 97 95 95 95 92 93 95 96 99 99 98 100 96 98
31 23 22 23 17 14 17 19 25 31 36 41 45 48 49 50 50 52 49 45 43 50 63 80 82 83 88 90 93 97 97 100 100 97 100 98 94 93 98 100 98 97 97
27 22 23 22 14 15 17 23 30 36 42 47 50 50 50 50 49 50 48 43 42 46 57 75 80 82 86 89 94 94 96 100 100 95 96 95 99 98 100 98 97 96 96
24 23 24 16 14 16 22 29 35 42 46 49 49 50 50 50 50 50 47 42 40 43 55 73 79 84 88 91 96 96 98 99 96 96 99 99 95 98 97 98 97 93 97
24 24 21 13 15 20 27 34 41 44 46 49 51 51 50 49 48 46 44 40 39 44 60 73 80 88 92 95 97 98 99 98 98 94 93 97 98 97 97 97 97 98 92